User: anonymous   Login
Location: Newark
(45.7425°N, 0.7617°W)
Time: 02:04:02
(UTC+00:00)
Language:

N. Korean satellite - Orbit

View from above orbital plane
View from above orbital plane
View from above satellite
View from above satellite

Ground track
Ground track

The orbit data is extracted from the following two-line orbital elements,

1 39026U 12072A   20056.44822231 +.00000818 +00000-0 +31789-4 0  9990
2 39026 097.2201 056.6319 0035850 286.9236 072.8076 15.28355396399985
Epoch (UTC): 25 February 2020 10:45:26
Eccentricity: 0.0035850
inclination: 97.2201°
perigee height: 456 km
apogee height: 505 km
right ascension of ascending node: 56.6319°
argument of perigee: 286.9236°
revolutions per day: 15.28355396
mean anomaly at epoch: 72.8076°
orbit number at epoch: 39998

The dashed part of the orbit path shows where the satellite is in the earth's shadow,  

DLR